Hilo, HI

3:51 AM HST on April 30, 2017 (GMT -1000)
Hilo International

Weather History for PHTO - November, 2011

Change the Weather History Date:

Wednesday, November 30, 2011

  Actual Average Record
Temperature  
Mean Temperature 71 °F 73 °F  
Max Temperature 79 °F 80 °F 88 °F (1956)
Min Temperature 63 °F 66 °F 61 °F (1985)
Degree Days  
Heating Degree Days 0 0  
Month to date heating degree days 0 0  
Since 1 July heating degree days 0 0  
Cooling Degree Days 6 8  
Month to date cooling degree days 250 272  
Year to date cooling degree days 3072 3007  
Growing Degree Days 21 (Base 50)    
Moisture  
Dew Point 61 °F    
Average Humidity 74    
Maximum Humidity 87    
Minimum Humidity 60    
Precipitation  
Precipitation 0.00 in 0.45 in 3.85 in (1968)
Month to date precipitation 17.47 15.50  
Year to date precipitation 77.40 115.15  
Snow  
Snow 0.00 in - - ()
Month to date snowfall 0.0  
Since 1 July snowfall 0.0  
Since 1 September snowfall 0.0  
Snow Depth 0.00 in    
Sea Level Pressure  
Sea Level Pressure 29.93 in    
Wind  
Wind Speed 6 mph (West)    
Max Wind Speed 12 mph    
Max Gust Speed 16 mph    
Visibility 10 miles    
Events      
T = Trace of Precipitation, MM = Missing Value Source: NWS Daily Summary

Daily Weather History Graph

Daily Weather History Graph

Search for Another Location

Airport or City:

Trip Planner

Search our weather history database for the weather conditions in past years. The results will help you decide how hot, cold, wet, or windy it might be!

Date:

Astronomy

Nov. 30, 2011 Rise Set
Actual Time 6:37 AM HST 5:39 PM HST
Civil Twilight 6:14 AM HST 6:03 PM HST
Nautical Twilight 5:46 AM HST 6:30 PM HST
Astronomical Twilight 5:20 AM HST 6:57 PM HST
Moon 11:24 AM HST 11:20 PM HST
Length of Visible Light 11h 49m
Length of Day
11h 02m
Waxing Crescent, 35% of the Moon is Illuminated
Nov 30
Waxing Crescent
Dec 1
First Quarter
Dec 10
Full
Dec 17
Last Quarter
Dec 24
New

Hourly Weather History & Observations

Time (HST) Temp. Dew Point Humidity Pressure Visibility Wind Dir Wind Speed Gust Speed Precip Events Conditions
12:53 AM 64.9 °F 60.1 °F 84% 29.94 in 10.0 mi WSW 6.9 mph - N/A   Mostly Cloudy
1:53 AM 64.9 °F 60.1 °F 84% 29.92 in 10.0 mi SW 5.8 mph - N/A   Partly Cloudy
2:53 AM 64.0 °F 57.9 °F 80% 29.91 in 10.0 mi SW 6.9 mph - N/A   Clear
3:53 AM 63.0 °F 57.0 °F 81% 29.91 in 10.0 mi WSW 6.9 mph - N/A   Scattered Clouds
4:53 AM 64.0 °F 55.9 °F 75% 29.92 in 10.0 mi Variable 3.5 mph - N/A   Mostly Cloudy
5:53 AM 64.9 °F 59.0 °F 81% 29.93 in 10.0 mi SW 6.9 mph - N/A   Overcast
6:53 AM 64.0 °F 55.9 °F 75% 29.93 in 10.0 mi WSW 8.1 mph - N/A   Partly Cloudy
7:53 AM 66.0 °F 55.0 °F 68% 29.95 in 10.0 mi SW 5.8 mph - N/A   Scattered Clouds
8:53 AM 73.9 °F 59.0 °F 59% 29.97 in 10.0 mi Calm Calm - N/A   Scattered Clouds
9:53 AM 77.0 °F 63.0 °F 62% 29.97 in 10.0 mi North 5.8 mph - N/A   Scattered Clouds
10:53 AM 78.1 °F 64.0 °F 62% 29.96 in 10.0 mi NNE 9.2 mph - N/A   Clear
11:53 AM 79.0 °F 64.0 °F 60% 29.93 in 10.0 mi North 10.4 mph - N/A   Clear
12:53 PM 78.1 °F 64.0 °F 62% 29.91 in 10.0 mi NNE 8.1 mph - N/A   Clear
1:53 PM 79.0 °F 64.9 °F 62% 29.87 in 10.0 mi North 8.1 mph - N/A   Scattered Clouds
2:53 PM 79.0 °F 64.9 °F 62% 29.87 in 10.0 mi North 8.1 mph - N/A   Clear
3:53 PM 78.1 °F 64.0 °F 62% 29.88 in 10.0 mi NNE 8.1 mph - N/A   Clear
4:53 PM 75.0 °F 64.0 °F 69% 29.90 in 10.0 mi NNE 5.8 mph - N/A   Partly Cloudy
5:53 PM 73.0 °F 64.9 °F 76% 29.92 in 10.0 mi NW 6.9 mph - N/A   Partly Cloudy
6:53 PM 70.0 °F 63.0 °F 78% 29.95 in 10.0 mi West 5.8 mph - N/A   Clear
7:53 PM 69.1 °F 62.1 °F 78% 29.96 in 10.0 mi WSW 4.6 mph - N/A   Partly Cloudy
8:53 PM 66.9 °F 61.0 °F 81% 29.97 in 10.0 mi SW 4.6 mph - N/A   Clear
9:53 PM 66.9 °F 61.0 °F 81% 29.96 in 10.0 mi WSW 3.5 mph - N/A   Partly Cloudy
10:53 PM 66.0 °F 61.0 °F 84% 29.97 in 10.0 mi SW 4.6 mph - N/A   Partly Cloudy
11:53 PM 64.9 °F 59.0 °F 81% 29.96 in 10.0 mi SW 6.9 mph - N/A   Partly Cloudy